Location: Aurora Center
(43.5271°N, 98.5894°W)
Time: 16:19:08
(UTC-05:00)

Envisat - Pass Details

Date: 21 June 2024
Orbit: 762 x 764 km, 98.3° (Epoch: 12 July)

Event Time Altitude Azimuth Distance (km) Brightness Sun altitude
Rises 03:20:04 0° 35° (NE) 3,233 7.8 -18.9°
Reaches altitude 10° 03:24:14 10° 69° (ENE) 2,300 6.1 -18.6°
Maximum altitude 03:25:49 11° 87° (E) 2,202 5.7 -18.5°
Drops below altitude 10° 03:27:25 10° 106° (ESE) 2,294 5.6 -18.3°
Sets 03:31:32 0° 140° (SE) 3,212 6.0 -18.0°
